.
WxDataArchive / Data Records for 2012-10-06
2012-10-05 October 2012 2012-10-07

Data Records for Saturday, 06 October 2012

Time	Temp	Chill	HIndex	Humid	Dewpt	 Wind 	HiWind	WindDir	Rain 	Barom 
-----	----	-----	------	-----	-----	------	------	-------	-----	----- 
00:00	41.6	41.6	41.6	94	40.0	0	1	270	0.00	30.040 
00:05	41.6	41.6	41.6	94	40.0	0	1	270	0.00	30.040 
00:10	41.5	41.5	41.5	94	39.9	0	1	270	0.00	30.040 
00:15	41.5	41.5	41.5	94	39.9	0	2	270	0.00	30.036 
00:20	41.3	41.3	41.3	94	39.7	0	1	270	0.00	30.036 
00:25	41.3	41.3	41.3	94	39.7	0	1	270	0.00	30.036 
00:30	41.2	41.2	41.2	94	39.6	0	1	270	0.00	30.032 
00:35	41.1	41.1	41.1	94	39.5	0	2	270	0.00	30.032 
00:40	40.9	40.9	40.9	94	39.3	0	2	270	0.00	30.032 
00:45	40.8	40.8	40.8	94	39.2	0	1	270	0.00	30.031 
00:50	40.6	40.6	40.6	94	39.0	0	1	270	0.00	30.031 
00:55	40.5	40.5	40.5	94	38.9	0	1	270	0.00	30.031 
01:00	40.3	40.3	40.3	94	38.7	0	1	270	0.00	30.030 
01:05	40.3	40.3	40.3	94	38.7	0	2	270	0.00	30.030 
01:10	40.2	40.2	40.2	94	38.6	0	2	270	0.00	30.030 
01:15	40.2	40.2	40.2	94	38.6	0	3	270	0.00	30.030 
01:20	40.1	40.1	40.1	94	38.5	0	1	270	0.00	30.030 
01:25	40.1	40.1	40.1	94	38.5	0	2	270	0.00	30.030 
01:30	39.9	39.9	39.9	94	38.3	0	1	270	0.00	30.031 
01:35	39.9	39.9	39.9	94	38.3	1	3	270	0.00	30.031 
01:40	39.8	39.8	39.8	94	38.2	0	2	270	0.00	30.031 
01:45	39.6	39.6	39.6	94	38.0	0	1	270	0.00	30.032 
01:50	39.6	39.6	39.6	94	38.0	0	2	270	0.00	30.032 
01:55	39.5	39.5	39.5	94	37.9	0	2	270	0.00	30.032 
02:00	39.5	39.5	39.5	94	37.9	0	3	270	0.00	30.031 
02:05	39.3	39.3	39.3	94	37.7	1	3	270	0.00	30.031 
02:10	39.3	39.3	39.3	94	37.7	1	3	270	0.00	30.031 
02:15	39.2	39.2	39.2	93	37.3	0	1	270	0.00	30.032 
02:20	39.2	39.2	39.2	93	37.3	0	3	270	0.00	30.032 
02:25	39.1	39.1	39.1	93	37.2	0	1	270	0.00	30.032 
02:30	39.1	39.1	39.1	93	37.2	0	2	270	0.00	30.032 
02:35	38.9	38.9	38.9	93	37.1	0	2	270	0.00	30.032 
02:40	38.9	38.9	38.9	93	37.1	0	1	270	0.00	30.032 
02:45	38.8	38.8	38.8	93	37.0	0	1	270	0.00	30.032 
02:50	38.8	38.8	38.8	93	37.0	0	2	270	0.00	30.032 
02:55	38.6	38.6	38.6	93	36.8	0	1	270	0.00	30.032 
03:00	38.6	38.6	38.6	93	36.8	0	1	270	0.00	30.032 
03:05	38.5	38.5	38.5	93	36.7	0	2	270	0.00	30.032 
03:10	38.5	38.5	38.5	93	36.7	0	1	270	0.00	30.032 
03:15	38.3	38.3	38.3	93	36.5	0	1	270	0.00	30.028 
03:20	38.3	38.3	38.3	93	36.5	0	1	270	0.00	30.028 
03:25	38.2	38.2	38.2	93	36.4	0	2	270	0.00	30.028 
03:30	38.2	38.2	38.2	93	36.4	0	1	270	0.00	30.030 
03:35	38.0	38.0	38.0	93	36.2	0	1	270	0.00	30.030 
03:40	38.0	38.0	38.0	93	36.2	0	2	270	0.00	30.030 
03:45	37.9	37.9	37.9	93	36.1	0	1	270	0.00	30.028 
03:50	37.9	37.9	37.9	93	36.1	0	1	270	0.00	30.028 
03:55	37.9	37.9	37.9	93	36.1	0	1	270	0.00	30.028 
04:00	37.8	37.8	37.8	93	36.0	0	1	270	0.00	30.026 
04:05	37.8	37.8	37.8	93	36.0	0	1	270	0.00	30.026 
04:10	37.8	37.8	37.8	93	36.0	0	2	270	0.00	30.026 
04:15	37.6	37.6	37.6	93	35.8	0	2	270	0.00	30.030 
04:20	37.5	37.5	37.5	93	35.7	0	1	270	0.00	30.030 
04:25	37.5	37.5	37.5	92	35.4	0	2	270	0.00	30.030 
04:30	37.3	37.3	37.3	92	35.2	0	1	270	0.00	30.030 
04:35	37.3	37.3	37.3	92	35.2	0	2	270	0.00	30.030 
04:40	37.2	37.2	37.2	92	35.1	0	1	270	0.00	30.030 
04:45	37.0	37.0	37.0	92	34.9	0	1	270	0.00	30.029 
04:50	37.0	37.0	37.0	92	34.9	0	1	270	0.00	30.029 
04:55	37.0	37.0	37.0	92	34.9	0	1	270	0.00	30.029 
05:00	36.9	36.9	36.9	92	34.8	0	2	270	0.00	30.028 
05:05	36.9	36.9	36.9	92	34.8	0	1	270	0.00	30.028 
05:10	36.8	36.8	36.8	92	34.7	0	1	270	0.00	30.028 
05:15	36.6	36.6	36.6	91	34.2	0	1	270	0.00	30.023 
05:20	36.6	36.6	36.6	91	34.2	0	3	270	0.00	30.023 
05:25	36.5	36.5	36.5	91	34.1	0	1	270	0.00	30.023 
05:30	36.5	36.5	36.5	91	34.1	0	1	270	0.00	30.023 
05:35	36.3	36.3	36.3	91	33.9	0	2	270	0.00	30.023 
05:40	36.3	36.3	36.3	90	33.7	0	2	270	0.00	30.023 
05:45	36.3	36.3	36.3	90	33.7	0	1	270	0.00	30.030 
05:50	36.2	36.2	36.2	90	33.6	0	1	270	0.00	30.030 
05:55	36.2	36.2	36.2	90	33.6	0	1	270	0.00	30.030 
06:00	36.0	36.0	36.0	90	33.4	0	1	270	0.00	30.037 
06:05	36.0	36.0	36.0	89	33.1	0	1	270	0.00	30.037 
06:10	35.9	35.9	35.9	89	33.0	0	1	270	0.00	30.037 
06:15	35.9	35.9	35.9	89	33.0	0	1	270	0.00	30.038 
06:20	35.8	35.8	35.8	89	32.9	0	1	270	0.00	30.038 
06:25	35.8	35.8	35.8	89	32.9	0	1	270	0.00	30.038 
06:30	35.6	35.6	35.6	89	32.7	0	2	270	0.00	30.038 
06:35	35.6	35.6	35.6	89	32.7	0	1	270	0.00	30.038 
06:40	35.5	35.5	35.5	88	32.3	0	1	270	0.00	30.038 
06:45	35.5	35.5	35.5	88	32.3	0	1	270	0.00	30.041 
06:50	35.5	35.5	35.5	88	32.3	0	1	270	0.00	30.041 
06:55	35.3	35.3	35.3	88	32.1	0	1	270	0.00	30.041 
07:00	35.3	35.3	35.3	88	32.1	0	1	270	0.00	30.050 
07:05	35.3	35.3	35.3	88	32.1	0	1	270	0.00	30.050 
07:10	35.2	35.2	35.2	88	32.0	0	1	270	0.00	30.050 
07:15	35.2	35.2	35.2	88	32.0	0	2	270	0.00	30.057 
07:20	35.2	35.2	35.2	88	32.0	0	1	270	0.00	30.057 
07:25	35.2	35.2	35.2	88	32.0	0	2	270	0.00	30.057 
07:30	35.0	35.0	35.0	87	31.5	0	1	270	0.00	30.065 
07:35	35.0	35.0	35.0	87	31.5	0	2	270	0.00	30.065 
07:40	35.0	35.0	35.0	87	31.5	0	1	270	0.00	30.065 
07:45	35.0	35.0	35.0	87	31.5	0	1	270	0.00	30.069 
07:50	35.0	35.0	35.0	87	31.5	0	2	270	0.00	30.069 
07:55	35.0	35.0	35.0	87	31.5	0	1	270	0.00	30.069 
08:00	35.0	35.0	35.0	87	31.5	0	2	270	0.00	30.071 
08:05	35.2	35.2	35.2	87	31.7	0	2	270	0.00	30.071 
08:10	35.2	35.2	35.2	87	31.7	0	2	270	0.00	30.071 
08:15	35.3	35.3	35.3	87	31.8	0	2	270	0.00	30.078 
08:20	35.5	35.5	35.5	86	31.7	0	3	270	0.00	30.078 
08:25	35.6	35.6	35.6	86	31.8	0	1	270	0.00	30.078 
08:30	35.8	35.8	35.8	86	32.0	0	2	270	0.00	30.081 
08:35	35.9	35.9	35.9	86	32.1	0	2	270	0.00	30.081 
08:40	36.0	36.0	36.0	86	32.2	1	2	270	0.00	30.081 
08:45	36.2	36.2	36.2	87	32.7	0	2	270	0.00	30.080 
08:50	36.3	36.3	36.3	85	32.2	0	2	270	0.00	30.080 
08:55	36.5	36.5	36.5	85	32.4	0	2	270	0.00	30.080 
09:00	36.6	36.6	36.6	84	32.2	0	2	270	0.00	30.087 
09:05	36.8	36.8	36.8	85	32.7	0	2	270	0.00	30.087 
09:10	37.2	37.2	37.2	85	33.1	0	2	270	0.00	30.087 
09:15	37.5	37.5	37.5	84	33.1	1	2	270	0.00	30.088 
09:20	37.9	37.9	37.9	84	33.5	1	3	270	0.00	30.088 
09:25	38.3	38.3	38.3	83	33.6	0	3	270	0.00	30.088 
09:30	38.8	38.8	38.8	83	34.1	0	2	270	0.00	30.089 
09:35	39.2	39.2	39.2	82	34.2	0	3	270	0.00	30.089 
09:40	39.8	39.8	39.8	81	34.5	0	3	270	0.00	30.089 
09:45	40.2	40.2	40.2	80	34.5	0	2	270	0.00	30.089 
09:50	40.6	40.6	40.6	80	34.9	0	4	270	0.00	30.089 
09:55	41.1	41.1	41.1	79	35.1	0	3	270	0.00	30.089 
10:00	41.6	41.6	41.6	79	35.6	0	2	270	0.00	30.084 
10:05	42.2	42.2	42.2	78	35.8	1	3	270	0.00	30.084 
10:10	42.8	42.8	42.8	76	35.8	1	3	270	0.00	30.084 
10:15	43.3	43.3	43.3	76	36.3	1	4	270	0.00	30.088 
10:20	43.6	43.6	43.6	73	35.5	2	5	270	0.00	30.088 
10:25	43.9	43.9	43.9	73	35.8	2	5	270	0.00	30.088 
10:30	44.3	44.3	44.3	73	36.2	1	3	270	0.00	30.091 
10:35	44.8	44.8	44.8	71	36.0	2	4	270	0.00	30.091 
10:40	45.1	45.1	45.1	70	35.9	2	5	270	0.00	30.091 
10:45	45.4	45.4	45.4	69	35.8	2	5	338	0.00	30.092 
10:50	45.8	45.8	45.8	69	36.2	2	4	270	0.00	30.092 
10:55	46.0	46.0	46.0	68	36.0	2	4	248	0.00	30.092 
11:00	46.4	46.4	46.4	67	36.0	2	4	248	0.00	30.092 
11:05	46.5	46.5	46.5	67	36.1	2	4	248	0.00	30.092 
11:10	46.8	46.8	46.8	66	36.0	2	5	270	0.00	30.092 
11:15	47.1	47.1	47.1	65	35.9	2	4	315	0.00	30.092 
11:20	47.1	47.1	47.1	63	35.2	2	4	315	0.00	30.092 
11:25	47.3	47.3	47.3	63	35.4	2	4	315	0.00	30.092 
11:30	47.6	47.6	47.6	65	36.4	2	5	315	0.00	30.092 
11:35	47.6	47.6	47.6	62	35.2	3	6	270	0.00	30.092 
11:40	47.7	47.7	47.7	63	35.7	3	6	270	0.00	30.092 
11:45	47.9	47.9	47.9	63	35.9	2	5	270	0.00	30.093 
11:50	48.3	48.3	48.3	63	36.3	2	4	270	0.00	30.093 
11:55	48.6	48.6	48.6	63	36.6	2	7	248	0.00	30.093 
12:00	48.3	48.3	48.3	61	35.5	2	4	270	0.00	30.094 
12:05	48.2	48.2	48.2	60	35.0	2	5	315	0.00	30.094 
12:10	48.3	48.3	48.3	61	35.5	2	4	270	0.00	30.094 
12:15	48.3	48.3	48.3	60	35.1	2	5	270	0.00	30.098 
12:20	48.8	48.8	48.8	61	36.0	1	3	270	0.00	30.098 
12:25	48.9	48.9	48.9	59	35.2	2	5	270	0.00	30.098 
12:30	48.3	48.3	48.3	58	34.2	3	5	270	0.00	30.098 
12:35	47.9	47.9	47.9	59	34.3	2	4	315	0.00	30.098 
12:40	48.0	48.0	48.0	60	34.8	2	5	270	0.00	30.098 
12:45	49.1	49.1	49.1	60	35.8	2	5	270	0.00	30.098 
12:50	50.1	50.1	50.1	58	35.9	2	5	270	0.00	30.098 
12:55	50.1	50.1	50.1	56	35.0	1	4	270	0.00	30.098 
13:00	49.1	49.1	49.1	56	34.1	2	6	270	0.00	30.095 
13:05	48.3	48.3	48.3	56	33.3	2	5	292	0.00	30.095 
13:10	47.9	47.9	47.9	57	33.4	2	5	270	0.00	30.095 
13:15	48.5	48.5	48.5	58	34.4	2	4	315	0.00	30.095 
13:20	49.6	49.6	49.6	58	35.4	2	5	270	0.00	30.095 
13:25	50.4	50.4	50.4	57	35.7	2	3	270	0.00	30.095 
13:30	50.5	50.5	50.5	55	34.9	2	5	270	0.00	30.092 
13:35	49.9	49.9	49.9	54	33.9	1	4	292	0.00	30.092 
13:40	49.5	49.5	49.5	54	33.6	2	4	292	0.00	30.092 
13:45	49.4	49.4	49.4	54	33.5	2	5	270	0.00	30.091 
13:50	48.9	48.9	48.9	56	33.9	2	5	270	0.00	30.091 
13:55	49.2	49.2	49.2	56	34.2	1	4	270	0.00	30.091 
14:00	49.5	49.5	49.5	56	34.5	1	5	270	0.00	30.083 
14:05	50.4	50.4	50.4	54	34.4	2	5	270	0.00	30.083 
14:10	50.5	50.5	50.5	52	33.5	2	6	270	0.00	30.083 
14:15	50.1	50.1	50.1	52	33.2	2	5	270	0.00	30.084 
14:20	49.4	49.4	49.4	53	33.0	2	4	315	0.00	30.084 
14:25	49.1	49.1	49.1	54	33.2	2	4	270	0.00	30.084 
14:30	48.9	48.9	48.9	54	33.0	2	4	270	0.00	30.085 
14:35	48.9	48.9	48.9	55	33.5	1	2	270	0.00	30.085 
14:40	49.1	49.1	49.1	55	33.6	0	3	270	0.00	30.085 
14:45	49.1	49.1	49.1	54	33.2	1	3	270	0.00	30.082 
14:50	49.2	49.2	49.2	53	32.8	2	4	315	0.00	30.082 
14:55	49.5	49.5	49.5	52	32.6	2	5	315	0.00	30.082 
15:00	49.6	49.6	49.6	52	32.7	2	5	270	0.00	30.081 
15:05	49.6	49.6	49.6	53	33.2	1	3	270	0.00	30.081 
15:10	49.6	49.6	49.6	52	32.7	1	4	292	0.00	30.081 
15:15	49.2	49.2	49.2	53	32.8	2	4	292	0.00	30.093 
15:20	49.1	49.1	49.1	53	32.7	1	4	292	0.00	30.093 
15:25	49.1	49.1	49.1	54	33.2	1	4	292	0.00	30.093 
15:30	49.1	49.1	49.1	54	33.2	1	4	315	0.00	30.096 
15:35	48.9	48.9	48.9	53	32.5	1	4	0	0.00	30.096 
15:40	48.9	48.9	48.9	54	33.0	1	5	270	0.00	30.096 
15:45	48.9	48.9	48.9	53	32.5	1	4	315	0.00	30.096 
15:50	48.8	48.8	48.8	54	32.9	2	5	270	0.00	30.096 
15:55	48.6	48.6	48.6	54	32.7	1	3	315	0.00	30.096 
16:00	48.5	48.5	48.5	54	32.6	2	5	270	0.00	30.096 
16:05	48.2	48.2	48.2	54	32.3	2	5	270	0.00	30.096 
16:10	48.0	48.0	48.0	55	32.6	1	4	292	0.00	30.096 
16:15	48.0	48.0	48.0	55	32.6	1	6	292	0.00	30.098 
16:20	47.9	47.9	47.9	54	32.1	2	4	270	0.00	30.098 
16:25	47.7	47.7	47.7	52	30.9	2	5	270	0.00	30.098 
16:30	47.4	47.4	47.4	52	30.7	2	5	270	0.00	30.098 
16:35	47.3	47.3	47.3	54	31.5	2	6	292	0.00	30.098 
16:40	47.4	47.4	47.4	55	32.1	1	3	270	0.00	30.098 
16:45	47.3	47.3	47.3	55	32.0	1	4	315	0.00	30.101 
16:50	47.1	47.1	47.1	55	31.8	1	4	315	0.00	30.101 
16:55	47.1	47.1	47.1	54	31.3	1	4	292	0.00	30.101 
17:00	47.0	47.0	47.0	54	31.2	2	4	270	0.00	30.108 
17:05	47.0	47.0	47.0	54	31.2	2	5	270	0.00	30.108 
17:10	47.1	47.1	47.1	55	31.8	1	3	270	0.00	30.108 
17:15	47.1	47.1	47.1	55	31.8	1	3	270	0.00	30.112 
17:20	47.1	47.1	47.1	56	32.2	1	4	270	0.00	30.112 
17:25	47.0	47.0	47.0	56	32.1	1	3	270	0.00	30.112 
17:30	46.8	46.8	46.8	55	31.5	1	3	270	0.00	30.116 
17:35	46.8	46.8	46.8	55	31.5	1	5	270	0.00	30.116 
17:40	46.8	46.8	46.8	55	31.5	1	3	270	0.00	30.116 
17:45	46.8	46.8	46.8	55	31.5	1	4	315	0.00	30.117 
17:50	47.0	47.0	47.0	56	32.1	1	3	315	0.00	30.117 
17:55	47.0	47.0	47.0	56	32.1	1	3	315	0.00	30.117 
18:00	46.8	46.8	46.8	57	32.4	0	2	0	0.00	30.116 
18:05	46.8	46.8	46.8	56	31.9	1	3	315	0.00	30.116 
18:10	46.7	46.7	46.7	56	31.8	1	3	315	0.00	30.116 
18:15	46.5	46.5	46.5	56	31.7	1	4	315	0.00	30.128 
18:20	46.4	46.4	46.4	57	32.0	1	3	270	0.00	30.128 
18:25	46.2	46.2	46.2	57	31.8	0	3	315	0.00	30.128 
18:30	46.1	46.1	46.1	57	31.7	1	3	315	0.00	30.128 
18:35	46.1	46.1	46.1	57	31.7	1	3	315	0.00	30.128 
18:40	46.0	46.0	46.0	56	31.2	1	5	315	0.00	30.128 
18:45	45.8	45.8	45.8	57	31.4	1	4	292	0.00	30.134 
18:50	45.7	45.7	45.7	58	31.8	0	3	292	0.00	30.134 
18:55	45.5	45.5	45.5	58	31.6	0	2	292	0.00	30.134 
19:00	45.5	45.5	45.5	58	31.6	1	4	292	0.00	30.137 
19:05	45.5	45.5	45.5	59	32.0	1	3	338	0.00	30.137 
19:10	45.4	45.4	45.4	59	31.9	0	2	338	0.00	30.137 
19:15	45.4	45.4	45.4	59	31.9	0	1	338	0.00	30.141 
19:20	45.4	45.4	45.4	60	32.3	0	2	338	0.00	30.141 
19:25	45.2	45.2	45.2	61	32.6	0	1	338	0.00	30.141 
19:30	45.2	45.2	45.2	61	32.6	0	1	338	0.00	30.147 
19:35	45.2	45.2	45.2	61	32.6	0	3	338	0.00	30.147 
19:40	45.1	45.1	45.1	61	32.5	0	2	338	0.00	30.147 
19:45	45.1	45.1	45.1	61	32.5	0	1	338	0.00	30.150 
19:50	44.9	44.9	44.9	61	32.3	0	3	338	0.00	30.150 
19:55	44.9	44.9	44.9	61	32.3	0	3	338	0.00	30.150 
20:00	44.9	44.9	44.9	61	32.3	0	1	338	0.00	30.151 
20:05	44.9	44.9	44.9	62	32.7	0	1	338	0.00	30.151 
20:10	44.8	44.8	44.8	62	32.6	0	1	338	0.00	30.151 
20:15	44.8	44.8	44.8	62	32.6	0	1	338	0.00	30.154 
20:20	44.8	44.8	44.8	62	32.6	0	2	338	0.00	30.154 
20:25	44.6	44.6	44.6	62	32.4	0	1	338	0.00	30.154 
20:30	44.6	44.6	44.6	62	32.4	0	0	---	0.00	30.153 
20:35	44.6	44.6	44.6	62	32.4	0	1	338	0.00	30.153 
20:40	44.6	44.6	44.6	62	32.4	0	1	338	0.00	30.153 
20:45	44.6	44.6	44.6	62	32.4	0	1	338	0.00	30.155 
20:50	44.5	44.5	44.5	62	32.3	0	1	338	0.00	30.155 
20:55	44.5	44.5	44.5	62	32.3	0	1	338	0.00	30.155 
21:00	44.5	44.5	44.5	62	32.3	0	1	338	0.00	30.161 
21:05	44.5	44.5	44.5	62	32.3	0	1	338	0.00	30.161 
21:10	44.5	44.5	44.5	63	32.7	0	1	338	0.00	30.161 
21:15	44.5	44.5	44.5	63	32.7	0	0	---	0.00	30.156 
21:20	44.3	44.3	44.3	63	32.5	0	0	---	0.00	30.156 
21:25	44.3	44.3	44.3	64	32.9	0	1	338	0.00	30.156 
21:30	44.3	44.3	44.3	64	32.9	0	1	338	0.00	30.158 
21:35	44.3	44.3	44.3	64	32.9	0	0	---	0.00	30.158 
21:40	44.2	44.2	44.2	65	33.2	0	1	338	0.00	30.158 
21:45	44.2	44.2	44.2	65	33.2	0	0	---	0.00	30.154 
21:50	44.2	44.2	44.2	65	33.2	0	0	---	0.00	30.154 
21:55	44.2	44.2	44.2	66	33.6	0	0	---	0.00	30.154 
22:00	44.2	44.2	44.2	66	33.6	0	0	---	0.00	30.148 
22:05	44.1	44.1	44.1	65	33.1	0	0	---	0.00	30.148 
22:10	44.1	44.1	44.1	66	33.5	0	0	---	0.00	30.148 
22:15	44.1	44.1	44.1	65	33.1	0	0	---	0.00	30.143 
22:20	44.1	44.1	44.1	65	33.1	0	0	---	0.00	30.143 
22:25	43.9	43.9	43.9	66	33.3	0	0	---	0.00	30.143 
22:30	43.9	43.9	43.9	66	33.3	0	0	---	0.00	30.142 
22:35	43.9	43.9	43.9	67	33.7	0	0	---	0.00	30.142 
22:40	43.9	43.9	43.9	68	34.0	0	0	---	0.00	30.142 
22:45	43.9	43.9	43.9	67	33.7	0	0	---	0.00	30.148 
22:50	43.9	43.9	43.9	67	33.7	0	0	---	0.00	30.148 
22:55	43.9	43.9	43.9	68	34.0	0	0	---	0.00	30.148 
23:00	43.8	43.8	43.8	68	33.9	0	0	---	0.00	30.148 
23:05	43.8	43.8	43.8	69	34.3	0	0	---	0.00	30.148 
23:10	43.8	43.8	43.8	68	33.9	0	0	---	0.00	30.148 
23:15	43.8	43.8	43.8	68	33.9	0	0	---	0.00	30.145 
23:20	43.8	43.8	43.8	69	34.3	0	0	---	0.00	30.145 
23:25	43.6	43.6	43.6	69	34.1	0	0	---	0.00	30.145 
23:30	43.6	43.6	43.6	69	34.1	0	0	---	0.00	30.143 
23:35	43.6	43.6	43.6	69	34.1	0	0	---	0.00	30.143 
23:40	43.6	43.6	43.6	69	34.1	0	0	---	0.00	30.143 
23:45	43.6	43.6	43.6	69	34.1	0	0	---	0.00	30.141 
23:50	43.6	43.6	43.6	69	34.1	0	0	---	0.00	30.141 
23:55	43.6	43.6	43.6	69	34.1	0	0	---	0.00	30.141 

CoCoRaHS
IN-AL-39
A2 Web Hosting
Creative Commons License
GoDaddy
search engine by freefind advanced

loaded 2018-11-17 13:14:39 • last modified 2010-11-18 10:43:29
Privacy PolicyDisclaimer
• wx.awcolley.com is powered by PmWiki v.2002016 •
• all content (unless otherwise noted) © 2018 A W Colley